Regional Weather Roundup
Issued by NWS

Home | Current Version | Previous Version | Text Only | Print | Product List | Glossary On
Versions: 1 2 3 4 5 6 7 8 9 10 11 12 13 14 15 16 17 18 19 20 21 22 23 24 25 26 27 28 29 30 31 32 33 34 35 36 37 38 39 40 41 42 43 44 45 46 47 48 49 50
000
ASUS43 KMKX 231221
RWRWI

WISCONSIN REGIONAL WEATHER ROUNDUP
NATIONAL WEATHER SERVICE MILWAUKEE/SULLIVAN WI
700 AM CDT MON OCT 23 2017

NOTE: "FAIR" INDICATES FEW OR NO CLOUDS BELOW 12,000 FEET WITH NO
SIGNIFICANT WEATHER AND/OR OBSTRUCTIONS TO VISIBILITY.

WIZ001-002-006>008-014>016-023>028-231300-
NORTHWEST WISCONSIN

CITY           SKY/WX    TMP DP  RH WIND       PRES   REMARKS
SUPERIOR ARPT  CLOUDY    53  36  50 SW12      29.69F
6HR MIN TEMP:  52; 6HR MAX TEMP:  56;

ASHLAND        MOCLDY    52  38  58 VRB7      29.74F
6HR MIN TEMP:  49; 6HR MAX TEMP:  53;

HAYWARD        CLOUDY    48  38  68 S7        29.77F
6HR MIN TEMP:  48; 6HR MAX TEMP:  53; 6HR PCP: TRACE;

SIREN          CLOUDY    52  35  51 S8        29.74S
6HR MIN TEMP:  52; 6HR MAX TEMP:  55;

CUMBERLAND     CLOUDY    43  36  75 SE6       29.76F
RICE LAKE      CLOUDY    45  39  80 SE7       29.79F
6HR MIN TEMP:  45; 6HR MAX TEMP:  50;

CHETEK         CLOUDY    44  41  88 S6        29.78F
6HR MIN TEMP:  44; 6HR MAX TEMP:  49;

LADYSMITH      CLEAR     45  40  81 SE9       29.81F
6HR MIN TEMP:  44; 6HR MAX TEMP:  47;

EAU CLAIRE     PTCLDY    46  40  79 S3        29.79F
6HR MIN TEMP:  45; 6HR MAX TEMP:  48; 6HR PCP: TRACE;

MENOMONIE      CLOUDY    44  40  88 E6        29.77F
6HR MIN TEMP:  44; 6HR MAX TEMP:  50;

NEW RICHMOND   CLEAR     48  35  61 S6        29.77F
OSCEOLA        PTCLDY    49  37  61 S5        29.79S
6HR MIN TEMP:  49; 6HR MAX TEMP:  54;

$$

WIZ003>005-009-010-017-018-231300-
NORTH CENTRAL WISCONSIN

CITY           SKY/WX    TMP DP  RH WIND       PRES   REMARKS
MANITOWISH WTR CLOUDY    42  42 100 SE7       29.82F
6HR MIN TEMP:  39; 6HR MAX TEMP:  43;

ARBOR VITAE    CLOUDY    44  41  87 S6        29.83F
6HR MIN TEMP:  42; 6HR MAX TEMP:  44;

WOODRUFF       CLOUDY    44  41  87 S6        29.83F
6HR MIN TEMP:  42; 6HR MAX TEMP:  44;

RHINELANDER    CLOUDY    44  40  85 S8        29.87F
6HR MIN TEMP:  41; 6HR MAX TEMP:  44;

EAGLE RIVER    NOT AVBL
LAND O LAKES   CLOUDY    41  40  98 S3        29.87F
6HR MIN TEMP:  37; 6HR MAX TEMP:  41;

PHILLIPS       CLOUDY    44  40  86 S7        29.82F
6HR MIN TEMP:  42; 6HR MAX TEMP:  44;

TOMAHAWK       CLOUDY    40  39  98 CALM      29.87F
6HR MIN TEMP:  34; 6HR MAX TEMP:  40;

MEDFORD        CLOUDY    41  39  92 S7        29.85F
6HR MIN TEMP:  37; 6HR MAX TEMP:  41;

MERRILL        CLOUDY    34  34 100 E3        29.88F
6HR MIN TEMP:  29; 6HR MAX TEMP:  35;

$$

WIZ029-030-035-036-043>047-231300-
CENTRAL WISCONSIN

CITY           SKY/WX    TMP DP  RH WIND       PRES   REMARKS
WAUSAU         CLOUDY    39  39 100 E5        29.88F
6HR MIN TEMP:  35; 6HR MAX TEMP:  43;

MOSINEE        MOCLDY    37  37 100 SE5       29.89F WCI  34
MARSHFIELD     CLOUDY    40  38  93 S3        29.86F
6HR MIN TEMP:  37; 6HR MAX TEMP:  40;

STEVENS POINT  CLOUDY    37  37 100 CALM      29.90S
6HR MIN TEMP:  35; 6HR MAX TEMP:  41;

WAUPACA        FOG       41  40  97 CALM      29.91F VSB 1/4
6HR MIN TEMP:  40; 6HR MAX TEMP:  45;

WAUTOMA        FOG      N/A N/A N/A MISG        N/A  VSB 1/2
WISC RAPIDS    CLOUDY    39  39 100 CALM      29.89F
6HR MIN TEMP:  36; 6HR MAX TEMP:  41;

CAMP DOUGLAS   MOCLDY    43  41  93 S5        29.87
$$

WIZ011>013-019>022-031-037>040-048>050-231300-
NORTHEAST WISCONSIN

CITY           SKY/WX    TMP DP  RH WIND       PRES   REMARKS
ANTIGO         CLOUDY    37  37 100 CALM      29.90S
6HR MIN TEMP:  32; 6HR MAX TEMP:  37;

SHAWANO        FOG       41  40  96 CALM      29.91F VSB 1/4
6HR MIN TEMP:  41; 6HR MAX TEMP:  47;

OCONTO         CLOUDY    41  41 100 CALM      29.94R VSB 1/4
6HR MIN TEMP:  38; 6HR MAX TEMP:  44;

STURGEON BAY   FOG       43  43 100 S3        29.93F VSB 1/2
6HR MIN TEMP:  42; 6HR MAX TEMP:  47;

GREEN BAY      FOG       43  43 100 CALM      29.92F VSB 1/4
6HR MIN TEMP:  43; 6HR MAX TEMP:  46;

MANITOWOC      FOG       43  43 100 CALM      29.92F VSB 3/4
APPLETON       FOG       43  43 100 CALM      29.92S VSB 1/16
CLINTONVILLE   FOG       39  37  93 CALM      29.91F VSB 1/4
OSHKOSH        FOG       42  41  96 S3        29.90F VSB 3/4
6HR MIN TEMP:  40; 6HR MAX TEMP:  46;

$$

WIZ032>034-041-042-053>061-231300-
SOUTHWEST WISCONSIN

CITY           SKY/WX    TMP DP  RH WIND       PRES   REMARKS
LA CROSSE      PTCLDY    48  44  86 S7        29.85F
6HR MIN TEMP:  45; 6HR MAX TEMP:  49;

SPARTA         CLOUDY    38  38 100 SE5       29.88F WCI  35
6HR MIN TEMP:  30; 6HR MAX TEMP:  38; 6HR PCP:  0.01;

VIROQUA        CLOUDY    42  42  99 SE5       29.88F
6HR MIN TEMP:  42; 6HR MAX TEMP:  45;

BOSCOBEL       FOG       41  40  96 CALM      29.91F VSB 1/4
6HR MIN TEMP:  41; 6HR MAX TEMP:  42;

PRAIRIE DU CHI CLOUDY    39  38  96 CALM      29.88F
6HR MIN TEMP:  38; 6HR MAX TEMP:  42;

PLATTEVILLE    CLOUDY    41  41 100 S5        29.92R
6HR MIN TEMP:  40; 6HR MAX TEMP:  46;

$$

WIZ056-057-062-063-064-067-068-231300-
SOUTH CENTRAL WISCONSIN

CITY           SKY/WX    TMP DP  RH WIND       PRES   REMARKS
REEDSBURG      CLOUDY    38  38 100 CALM      29.90S
6HR MIN TEMP:  35; 6HR MAX TEMP:  40;

BARABOO/DELLS  CLOUDY    40  40  99 CALM      29.90R
6HR MIN TEMP:  38; 6HR MAX TEMP:  42;

LONE ROCK      FOG       39  39 100 SE3       29.93R VSB 1/4
6HR MIN TEMP:  39; 6HR MAX TEMP:  42;

MINERAL POINT  CLOUDY    43  43 100 S5        29.92R FOG
MADISON        CLOUDY    42  41  96 CALM      29.91F
6HR MIN TEMP:  41; 6HR MAX TEMP:  46;

MIDDLETON      CLOUDY    42  42 100 CALM      29.91F
6HR MIN TEMP:  41; 6HR MAX TEMP:  46;

WATERTOWN      CLOUDY    43  43 100 CALM      29.92S FOG
6HR MIN TEMP:  42; 6HR MAX TEMP:  47;

MONROE         CLOUDY    43  41  93 CALM      29.91F
JANESVILLE     MOCLDY    46  46 100 CALM      29.90F
$$

WIZ051-052-058>065-066-070>072-231300-
SOUTHEAST WISCONSIN

CITY           SKY/WX    TMP DP  RH WIND       PRES   REMARKS
MILWAUKEE      CLOUDY    51  48  89 N7        29.92F
6HR MIN TEMP:  51; 6HR MAX TEMP:  52; 6HR PCP:  0.08;

WAUKESHA       MOCLDY    46  45  93 CALM      29.93F
MILWAUKEE/TIMM LGT RAIN  46  45  93 CALM      29.92F
RACINE         LGT RAIN  50  49  96 N7        29.93F
6HR MIN TEMP:  50; 6HR MAX TEMP:  51; 6HR PCP:  0.18;

BURLINGTON     LGT RAIN  48  48 100 CALM      29.92F
6HR MIN TEMP:  48; 6HR MAX TEMP:  49;

KENOSHA        LGT RAIN  50  48  93 N3        29.92F
6HR MIN TEMP:  50; 6HR MAX TEMP:  51; 6HR PCP:  0.17;

FOND DU LAC    MOCLDY    43  40  89 SE3       29.91F FOG
6HR MIN TEMP:  42; 6HR MAX TEMP:  47;

SHEBOYGAN      CLOUDY    45  45 100 CALM      29.92F FOG
6HR MIN TEMP:  44; 6HR MAX TEMP:  49; 6HR PCP: TRACE;

WEST BEND      FOG       45  45 100 CALM      29.92F VSB 1/2
JUNEAU         FOG       41  41  99 E3        29.92F VSB<1/4
6HR MIN TEMP:  41; 6HR MAX TEMP:  46; 6HR PCP:  0.01;

$$

LSZ147-162-231300-
LAKE SUPERIOR

STATION/POSITION TIME  TEMP    WIND        PRES    WAVE
                       AIR SEA DIR/SP/G            HT/PER
                 (UTC) (F)     (DEG/KT/KT) (MB)    (FT/S)
W MID LAKE BUOY  1150   53 51              1007.1F   2/ 4
DEVILS ISLAND    1200   54     190/  9/ 13 1006.3F
PORT WING        1020          170/ 12/ 20 1006.8
SAXON HARBOR     1140   54     190/ 10/ 16 1006.8F
$$

LMZ867-665-643>646-231300-
LAKE MICHIGAN

STATION/POSITION TIME  TEMP    WIND        PRES    WAVE
                       AIR SEA DIR/SP/G            HT/PER
                 (UTC) (F)     (DEG/KT/KT) (MB)    (FT/S)
S GREEN BAY BUOY 1200   49 58  180/  4/  6 1013.1
N MID LAKE BUOY  1150   52 56  210/  6/  8 1014.4F   1
NORTHPORT PIER   1200   46     180/  3/ 14 1013.2
KEWAUNEE LAKESHO 1154   44      CALM  /  2



USA.gov is the U.S. government's official web portal to all federal, state and local government web resources and services.